timestamp,wind_dir_avg,wind_spd_avg,wind_spd_max_dir,wind_spd_gust,battery_voltage,lat,long
2021-03-27 00:04:01+00:00,221.0,2.42,226.0,2.85,12.57,47.59359,-54.27349
2021-03-27 00:14:01+00:00,36.0,0.6,32.0,0.83,12.49,47.59359,-54.27349
2021-03-27 00:24:01+00:00,126.0,0.95,116.0,1.19,12.49,47.59359,-54.27349
2021-03-27 00:34:01+00:00,27.0,7.73,29.0,8.36,12.49,47.59359,-54.27349
2021-03-27 00:44:01+00:00,35.0,9.64,37.0,10.52,12.49,47.59359,-54.27349
2021-03-27 00:54:01+00:00,45.0,9.6,46.0,10.5,12.49,47.59359,-54.27349
2021-03-27 01:04:01+00:00,56.0,8.58,52.0,9.59,12.49,47.59359,-54.27349
2021-03-27 01:14:01+00:00,63.0,6.47,60.0,7.31,12.49,47.59359,-54.27349
2021-03-27 01:24:01+00:00,48.0,11.99,46.0,13.72,12.49,47.59359,-54.27349
2021-03-27 01:34:01+00:00,46.0,11.9,49.0,13.61,12.49,47.59359,-54.27349
2021-03-27 01:44:01+00:00,45.0,12.26,43.0,13.68,12.49,47.59359,-54.27349
2021-03-27 01:54:01+00:00,44.0,11.96,44.0,13.26,12.49,47.59359,-54.27349
2021-03-27 02:04:01+00:00,47.0,12.22,49.0,13.72,12.49,47.59359,-54.27349
2021-03-27 02:14:01+00:00,53.0,13.03,55.0,14.84,12.41,47.59359,-54.27349
2021-03-27 02:24:01+00:00,52.0,14.32,54.0,16.35,12.41,47.59359,-54.27349
2021-03-27 02:34:01+00:00,50.0,12.48,48.0,14.47,12.41,47.59359,-54.27349
2021-03-27 02:44:01+00:00,53.0,12.02,53.0,14.05,12.41,47.59359,-54.27349
2021-03-27 02:54:01+00:00,51.0,12.92,49.0,14.48,12.41,47.59359,-54.27349
2021-03-27 03:04:01+00:00,57.0,9.95,60.0,10.85,12.41,47.59359,-54.27349
2021-03-27 03:14:01+00:00,57.0,11.99,57.0,13.23,12.41,47.59359,-54.27349
2021-03-27 03:24:01+00:00,56.0,12.73,55.0,13.82,12.41,47.59359,-54.27349
2021-03-27 03:34:01+00:00,59.0,11.53,61.0,13.54,12.41,47.59359,-54.27349
2021-03-27 03:44:01+00:00,59.0,12.57,58.0,14.71,12.41,47.59359,-54.27349
2021-03-27 03:54:01+00:00,53.0,11.14,59.0,13.11,12.41,47.59359,-54.27349
2021-03-27 04:04:01+00:00,58.0,13.23,56.0,14.77,12.41,47.59359,-54.27349
2021-03-27 04:14:01+00:00,59.0,12.53,57.0,13.79,12.41,47.59359,-54.27349
2021-03-27 04:24:01+00:00,58.0,12.63,59.0,14.2,12.41,47.59359,-54.27349
2021-03-27 04:34:01+00:00,56.0,13.32,54.0,15.5,12.41,47.59359,-54.27349
2021-03-27 04:44:01+00:00,58.0,14.82,62.0,19.83,12.41,47.59359,-54.27349
2021-03-27 04:54:01+00:00,57.0,12.74,64.0,16.26,12.41,47.59359,-54.27349
2021-03-27 05:04:01+00:00,61.0,15.88,62.0,20.34,12.41,47.59359,-54.27349
2021-03-27 05:14:01+00:00,59.0,15.69,65.0,20.46,12.41,47.59359,-54.27349
2021-03-27 05:24:01+00:00,61.0,15.59,69.0,19.78,12.41,47.59359,-54.27349
2021-03-27 05:34:01+00:00,65.0,15.0,71.0,19.85,12.41,47.59359,-54.27349
2021-03-27 05:44:01+00:00,55.0,15.17,63.0,19.63,12.41,47.59359,-54.27349
2021-03-27 05:54:01+00:00,57.0,14.57,59.0,20.5,12.41,47.59359,-54.27349
2021-03-27 06:04:01+00:00,53.0,15.2,57.0,19.47,12.41,47.59359,-54.27349
2021-03-27 06:14:01+00:00,57.0,15.42,60.0,20.21,12.41,47.59359,-54.27349
2021-03-27 06:24:01+00:00,56.0,16.86,58.0,19.84,12.41,47.59359,-54.27349
2021-03-27 06:34:01+00:00,61.0,16.58,59.0,20.87,12.41,47.59359,-54.27349
2021-03-27 06:44:01+00:00,62.0,14.45,69.0,19.15,12.41,47.59359,-54.27349
2021-03-27 06:54:01+00:00,63.0,17.79,62.0,20.41,12.41,47.59359,-54.27349
2021-03-27 07:04:01+00:00,62.0,15.71,63.0,20.2,12.41,47.59359,-54.27349
2021-03-27 07:14:01+00:00,62.0,16.59,61.0,21.08,12.33,47.59359,-54.27349
2021-03-27 07:24:01+00:00,64.0,18.23,59.0,20.48,12.33,47.59359,-54.27349
2021-03-27 07:34:01+00:00,68.0,16.64,67.0,19.92,12.33,47.59359,-54.27349
2021-03-27 07:44:01+00:00,69.0,18.0,70.0,19.64,12.33,47.59359,-54.27349
2021-03-27 07:54:01+00:00,52.0,16.57,60.0,20.49,12.33,47.59359,-54.27349
2021-03-27 08:04:01+00:00,57.0,18.91,55.0,21.21,12.33,47.59359,-54.27349
2021-03-27 08:14:01+00:00,59.0,18.41,54.0,20.68,12.33,47.59359,-54.27349
2021-03-27 08:24:01+00:00,59.0,16.93,58.0,20.33,12.33,47.59359,-54.27349
2021-03-27 08:34:01+00:00,63.0,17.23,58.0,21.08,12.33,47.59359,-54.27349
2021-03-27 08:44:01+00:00,62.0,19.56,58.0,21.87,12.33,47.59359,-54.27349
2021-03-27 08:54:01+00:00,68.0,18.18,69.0,20.89,12.33,47.59359,-54.27349
2021-03-27 09:04:01+00:00,65.0,18.32,61.0,20.02,12.33,47.59359,-54.27349
2021-03-27 09:14:01+00:00,63.0,15.54,58.0,18.5,12.25,47.59359,-54.27349
2021-03-27 09:24:01+00:00,61.0,18.08,61.0,20.88,12.25,47.59359,-54.27349
2021-03-27 09:34:01+00:00,61.0,18.45,62.0,21.16,12.25,47.59359,-54.27349
2021-03-27 09:44:01+00:00,62.0,18.13,62.0,20.79,12.25,47.59359,-54.27349
2021-03-27 09:54:01+00:00,56.0,18.03,52.0,20.52,12.25,47.59359,-54.27349
2021-03-27 10:04:01+00:00,51.0,18.6,59.0,21.17,12.25,47.59359,-54.27349
2021-03-27 10:14:01+00:00,56.0,19.94,52.0,21.64,12.25,47.59359,-54.27349
2021-03-27 10:24:01+00:00,60.0,17.33,53.0,20.66,12.25,47.59359,-54.27349
2021-03-27 10:34:01+00:00,60.0,18.83,59.0,20.28,12.25,47.59359,-54.27349
2021-03-27 10:44:01+00:00,58.0,19.28,53.0,21.41,12.25,47.59359,-54.27349
2021-03-27 10:54:01+00:00,56.0,16.3,56.0,20.54,12.25,47.59359,-54.27349
2021-03-27 11:04:01+00:00,60.0,17.52,55.0,20.51,12.25,47.59359,-54.27349
2021-03-27 11:14:01+00:00,64.0,17.59,62.0,20.57,12.25,47.59359,-54.27349
2021-03-27 11:24:01+00:00,61.0,18.03,61.0,20.59,12.25,47.59359,-54.27349
2021-03-27 11:34:01+00:00,61.0,19.43,60.0,21.58,12.25,47.59359,-54.27349
2021-03-27 11:44:01+00:00,60.0,19.0,59.0,21.15,12.25,47.59359,-54.27349
2021-03-27 11:54:01+00:00,58.0,20.42,53.0,21.96,12.25,47.59359,-54.27349
2021-03-27 12:04:01+00:00,57.0,20.35,54.0,21.82,12.25,47.59359,-54.27349
2021-03-27 12:14:01+00:00,56.0,18.29,54.0,21.65,12.65,47.59359,-54.27349
2021-03-27 12:24:01+00:00,55.0,18.04,57.0,21.55,12.65,47.59359,-54.27349
2021-03-27 12:34:01+00:00,57.0,18.72,59.0,21.66,12.65,47.59359,-54.27349
2021-03-27 12:44:01+00:00,54.0,20.37,50.0,22.66,12.65,47.59359,-54.27349
2021-03-27 12:54:01+00:00,55.0,19.8,51.0,22.56,12.65,47.59359,-54.27349
2021-03-27 13:04:01+00:00,55.0,20.56,59.0,22.28,12.65,47.59359,-54.27349
2021-03-27 13:14:01+00:00,55.0,20.27,56.0,21.97,12.97,47.59359,-54.27349
2021-03-27 13:24:01+00:00,50.0,17.35,52.0,21.86,12.97,47.59359,-54.27349
2021-03-27 13:34:01+00:00,52.0,17.96,45.0,22.92,12.97,47.59359,-54.27349
2021-03-27 13:44:01+00:00,54.0,18.72,57.0,21.84,12.97,47.59359,-54.27349
2021-03-27 13:54:01+00:00,57.0,19.5,54.0,21.83,12.97,47.59359,-54.27349
2021-03-27 14:04:01+00:00,58.0,20.48,62.0,23.38,12.97,47.59359,-54.27349
2021-03-27 14:14:01+00:00,55.0,20.86,52.0,23.73,13.29,47.59359,-54.27349
2021-03-27 14:24:01+00:00,54.0,19.62,50.0,21.87,13.29,47.59359,-54.27349
2021-03-27 14:34:01+00:00,52.0,17.84,54.0,22.01,13.29,47.59359,-54.27349
2021-03-27 14:44:01+00:00,52.0,19.79,53.0,22.44,13.29,47.59359,-54.27349
2021-03-27 14:54:01+00:00,49.0,20.07,49.0,22.9,13.29,47.59359,-54.27349
2021-03-27 15:04:01+00:00,54.0,21.17,54.0,24.83,13.29,47.59359,-54.27349
2021-03-27 15:14:01+00:00,51.0,20.82,57.0,25.08,13.44,47.59359,-54.27349
2021-03-27 15:24:01+00:00,50.0,20.75,49.0,23.92,13.44,47.59359,-54.27349
2021-03-27 15:34:01+00:00,52.0,18.25,55.0,21.57,13.44,47.59359,-54.27349
2021-03-27 15:44:01+00:00,55.0,20.23,55.0,23.03,13.44,47.59359,-54.27349
2021-03-27 15:54:01+00:00,52.0,22.27,44.0,25.53,13.44,47.59359,-54.27349
2021-03-27 16:04:01+00:00,56.0,21.33,57.0,24.63,13.44,47.59359,-54.27349
2021-03-27 17:14:01+00:00,47.0,22.45,46.0,25.08,12.97,47.59359,-54.27349
2021-03-27 17:24:01+00:00,45.0,22.17,37.0,25.61,12.97,47.59359,-54.27349
2021-03-27 17:34:01+00:00,51.0,17.36,38.0,21.81,12.97,47.59359,-54.27349
2021-03-27 17:44:01+00:00,50.0,19.58,46.0,22.4,12.97,47.59359,-54.27349
2021-03-27 17:54:01+00:00,50.0,20.73,56.0,24.11,12.97,47.59359,-54.27349
2021-03-27 18:04:01+00:00,51.0,21.02,55.0,24.28,12.97,47.59359,-54.27349
2021-03-27 18:14:01+00:00,50.0,18.8,53.0,21.6,13.13,47.59359,-54.27349
2021-03-27 18:24:01+00:00,45.0,18.01,42.0,21.79,13.13,47.59359,-54.27349
2021-03-27 18:34:01+00:00,45.0,22.39,52.0,26.75,13.13,47.59359,-54.27349
2021-03-27 18:44:01+00:00,47.0,19.33,48.0,22.39,13.13,47.59359,-54.27349
2021-03-27 18:54:01+00:00,41.0,19.08,41.0,21.94,13.13,47.59359,-54.27349
2021-03-27 19:04:01+00:00,39.0,19.51,36.0,23.56,13.13,47.59359,-54.27349
2021-03-27 19:14:01+00:00,39.0,18.17,40.0,22.1,13.44,47.59359,-54.27349
2021-03-27 19:24:01+00:00,40.0,15.7,38.0,20.35,13.44,47.59359,-54.27349
2021-03-27 19:34:01+00:00,45.0,17.88,51.0,20.6,13.44,47.59359,-54.27349
2021-03-27 19:44:01+00:00,40.0,16.46,43.0,20.09,13.44,47.59359,-54.27349
2021-03-27 19:54:01+00:00,45.0,19.3,46.0,23.05,13.44,47.59359,-54.27349
2021-03-27 20:04:01+00:00,47.0,17.52,48.0,20.6,13.44,47.59359,-54.27349
2021-03-27 20:14:01+00:00,46.0,17.89,46.0,21.4,13.29,47.59359,-54.27349
2021-03-27 20:24:01+00:00,42.0,16.42,47.0,20.24,13.29,47.59359,-54.27349
2021-03-27 20:34:01+00:00,42.0,17.31,40.0,21.66,13.29,47.59359,-54.27349
2021-03-27 20:44:01+00:00,39.0,19.72,36.0,22.77,13.29,47.59359,-54.27349
2021-03-27 20:54:01+00:00,40.0,18.39,48.0,21.11,13.29,47.59359,-54.27349
2021-03-27 21:04:01+00:00,37.0,18.21,43.0,22.43,13.29,47.59359,-54.27349
2021-03-27 21:14:01+00:00,37.0,19.51,37.0,22.88,13.37,47.59359,-54.27349
2021-03-27 21:24:01+00:00,37.0,18.39,37.0,22.98,13.37,47.59359,-54.27349
2021-03-27 21:34:01+00:00,37.0,18.53,39.0,21.84,13.37,47.59359,-54.27349
2021-03-27 21:44:01+00:00,40.0,18.04,45.0,21.57,13.37,47.59359,-54.27349
2021-03-27 21:54:01+00:00,36.0,18.39,38.0,20.68,13.37,47.59359,-54.27349
2021-03-27 22:04:01+00:00,35.0,21.08,37.0,25.77,13.37,47.59359,-54.27349
2021-03-27 22:14:01+00:00,39.0,17.46,39.0,21.59,12.81,47.59359,-54.27349
2021-03-27 22:24:01+00:00,37.0,18.98,46.0,21.43,12.81,47.59359,-54.27349
2021-03-27 22:34:01+00:00,32.0,19.34,37.0,22.54,12.81,47.59359,-54.27349
2021-03-27 22:44:01+00:00,33.0,17.41,37.0,20.53,12.81,47.59359,-54.27349
2021-03-27 22:54:01+00:00,42.0,17.84,42.0,22.42,12.81,47.59359,-54.27349
2021-03-27 23:04:01+00:00,33.0,19.43,38.0,21.37,12.81,47.59359,-54.27349
2021-03-27 23:14:01+00:00,33.0,18.21,37.0,21.09,12.41,47.59359,-54.27349
2021-03-27 23:24:01+00:00,31.0,18.1,42.0,21.62,12.41,47.59359,-54.27349
2021-03-27 23:34:01+00:00,34.0,17.58,34.0,22.08,12.41,47.59359,-54.27349
2021-03-27 23:44:01+00:00,30.0,17.94,29.0,20.42,12.41,47.59359,-54.27349
2021-03-27 23:54:01+00:00,31.0,16.48,38.0,20.47,12.41,47.59359,-54.27349
